Overview Statistics Trail Chart Weather Telemetry Raw packets
 

This is the latest recevied weather packets stored in our database for station/object KC8SWY-15. If no packets are shown the sender has not sent any weather packets the latest 10 day(s).

<< 32 33 34 35 36 37 38 >>
Time Temp. Humidity Pressure Rain* Wind** Luminosity Snow
1788474931 25° C 82% 1012.4 hPa 0 mm - - -
1788474631 25° C 82% 1012.4 hPa 0 mm - - -
1788474331 25° C 81% 1012.4 hPa 0 mm - - -
1788474031 25° C 81% 1012.3 hPa 0 mm - - -
1788473731 25° C 80% 1012.3 hPa 0 mm - - -
1788473431 25.56° C 81% 1012.4 hPa 0 mm - - -
1788473131 25° C 81% 1012.4 hPa 0 mm - - -
1788472831 25° C 81% 1012.4 hPa 0 mm - - -
1788472531 25° C 81% 1012.3 hPa 0 mm - - -
1788472231 25° C 81% 1012.3 hPa 0 mm - - -
1788471931 25° C 82% 1012.4 hPa 0 mm - - -
1788471631 24.44° C 84% 1012.4 hPa 0.25 mm - - -
1788471331 24.44° C 86% 1012.6 hPa 0.25 mm - - -
1788471031 23.89° C 87% 1013 hPa 0.25 mm - - -
1788470731 23.89° C 88% 1012.8 hPa 0.25 mm - - -
1788470431 23.33° C 89% 1013 hPa 0.25 mm - - -
1788470131 23.33° C 90% 1013.1 hPa 0.25 mm - - -
1788469831 22.78° C 90% 1013.3 hPa 0.25 mm - - -
1788469531 22.78° C 89% 1013.2 hPa 0.25 mm - - -
1788469231 23.33° C 87% 1013.3 hPa 0.25 mm - - -
1788468931 23.33° C 86% 1013.6 hPa 0.25 mm - - -
1788468653 23.33° C 85% 1013.7 hPa 0.25 mm - - -
1788468331 23.89° C 84% 1013.9 hPa 0.25 mm - - -
1788468031 23.89° C 82% 1014.1 hPa 0 mm - - -
1788467731 23.89° C 81% 1014.3 hPa 0 mm - - -

* Rain latest hour (hover to see other rain measurements)
** Current wind speed in m/s (hover to see current wind gust speed)